| time (UTC) | temp F | wind direction | speed MPH | gust MPH | rain 1hr in | rain 24hr in | rain mn in | humidity % | barometer mb |
| 20260502151917 | 74 | 158 | 0.0 | 0.0 | 0.00 | 0.00 | 0.00 | 34 | 1021.1 |
| 20260502150917 | 74 | 158 | 2.0 | 4.0 | 0.00 | 0.00 | 0.00 | 35 | 1021.2 |
| 20260502150417 | 74 | 135 | 0.0 | 2.0 | 0.00 | 0.00 | 0.00 | 34 | 1021.3 |
| 20260502130419 | 79 | 158 | 0.0 | 2.0 | 0.00 | 0.00 | 0.00 | 32 | 1022.7 |
| 20260502122919 | 79 | 270 | 0.0 | 0.0 | 0.00 | 0.00 | 0.00 | 32 | 1023.0 |
| 20260502122419 | 78 | 315 | 0.0 | 2.0 | 0.00 | 0.00 | 0.00 | 31 | 1023.1 |
| 20260502121919 | 79 | 23 | 0.0 | 2.0 | 0.00 | 0.00 | 0.00 | 31 | 1023.1 |
| 20260502121419 | 78 | 158 | 1.0 | 3.0 | 0.00 | 0.00 | 0.00 | 32 | 1023.3 |
| 20260502120919 | 78 | 158 | 2.0 | 3.0 | 0.00 | 0.00 | 0.00 | 32 | 1023.3 |
| 20260502120420 | 78 | 158 | 2.0 | 4.0 | 0.00 | 0.00 | 0.00 | 31 | 1023.5 |
| 20260502115919 | 80 | 180 | 2.0 | 4.0 | 0.00 | 0.00 | 0.00 | 30 | 1023.4 |
| 20260502114919 | 81 | 135 | 0.0 | 0.0 | 0.00 | 0.00 | 0.00 | 30 | 1023.6 |
| 20260502114420 | 82 | 135 | 0.0 | 0.0 | 0.00 | 0.00 | 0.00 | 30 | 1023.5 |
| 20260502113920 | 82 | 158 | 0.0 | 0.0 | 0.00 | 0.00 | 0.00 | 30 | 1023.8 |
| 20260502113420 | 82 | 0 | 1.0 | 5.0 | 0.00 | 0.00 | 0.00 | 29 | 1023.7 |
| 20260502112919 | 83 | 23 | 0.0 | 5.0 | 0.00 | 0.00 | 0.00 | 29 | 1023.7 |
| 20260502112420 | 83 | 23 | 0.0 | 0.0 | 0.00 | 0.00 | 0.00 | 30 | 1023.6 |
| 20260502111920 | 82 | 23 | 0.0 | 2.0 | 0.00 | 0.00 | 0.00 | 31 | 1023.8 |
| 20260502111421 | 82 | 23 | 0.0 | 2.0 | 0.00 | 0.00 | 0.00 | 30 | 1023.7 |
| 20260502110920 | 82 | 23 | 0.0 | 0.0 | 0.00 | 0.00 | 0.00 | 31 | 1024.0 |
| 20260502110420 | 82 | 180 | 0.0 | 0.0 | 0.00 | 0.00 | 0.00 | 31 | 1024.1 |
| 20260502104920 | 78 | 23 | 0.0 | 0.0 | 0.00 | 0.00 | 0.00 | 33 | 1024.2 |
| 20260502104420 | 78 | 270 | 0.0 | 0.0 | 0.00 | 0.00 | 0.00 | 35 | 1024.4 |
| 20260502103921 | 76 | 23 | 0.0 | 0.0 | 0.00 | 0.00 | 0.00 | 36 | 1024.6 |
| 20260502102923 | 74 | 23 | 1.0 | 5.0 | 0.00 | 0.00 | 0.00 | 36 | 1024.4 |
| 20260502102420 | 74 | 23 | 1.0 | 4.0 | 0.00 | 0.00 | 0.00 | 36 | 1024.6 |
| 20260502101921 | 75 | 0 | 1.0 | 5.0 | 0.00 | 0.00 | 0.00 | 37 | 1024.5 |
| 20260502101420 | 74 | 135 | 0.0 | 5.0 | 0.00 | 0.00 | 0.00 | 37 | 1024.6 |
| 20260502100920 | 74 | 135 | 0.0 | 0.0 | 0.00 | 0.00 | 0.00 | 37 | 1024.8 |
| 20260502100421 | 74 | 23 | 0.0 | 0.0 | 0.00 | 0.00 | 0.00 | 38 | 1024.9 |
| 20260502091421 | 74 | 23 | 0.0 | 0.0 | 0.00 | 0.00 | 0.00 | 38 | 1025.4 |
| 20260502090921 | 74 | 23 | 0.0 | 0.0 | 0.00 | 0.00 | 0.00 | 38 | 1025.4 |
| 20260502090421 | 75 | 23 | 0.0 | 0.0 | 0.00 | 0.00 | 0.00 | 38 | 1025.4 |
| 20260502070923 | 58 | 135 | 0.0 | 0.0 | 0.00 | 0.00 | 0.00 | 70 | 1026.1 |
| 20260502070424 | 57 | 113 | 0.0 | 0.0 | 0.00 | 0.00 | 0.00 | 70 | 1026.0 |
| 20260502065923 | 56 | 135 | 0.0 | 0.0 | 0.00 | 0.00 | 0.00 | 71 | 1026.0 |
| 20260502065423 | 56 | 135 | 0.0 | 0.0 | 0.00 | 0.00 | 0.00 | 72 | 1026.1 |
| 20260502062923 | 52 | 45 | 0.0 | 0.0 | 0.00 | 0.00 | 0.00 | 77 | 1026.2 |
| 20260502062423 | 51 | 45 | 0.0 | 0.0 | 0.00 | 0.00 | 0.00 | 79 | 1026.2 |
| 20260502061423 | 49 | 45 | 0.0 | 0.0 | 0.00 | 0.00 | 0.00 | 80 | 1026.2 |
| 20260502060923 | 48 | 45 | 0.0 | 0.0 | 0.00 | 0.00 | 0.00 | 81 | 1026.3 |
| 20260502060424 | 48 | 45 | 0.0 | 0.0 | 0.00 | 0.00 | 0.00 | 81 | 1026.3 |
| 20260502054924 | 46 | 45 | 0.0 | 0.0 | 0.00 | 0.00 | 0.00 | 82 | 1026.2 |
| 20260502054424 | 45 | 23 | 0.0 | 0.0 | 0.00 | 0.00 | 0.00 | 82 | 1026.5 |
| 20260502053924 | 45 | 45 | 0.0 | 0.0 | 0.00 | 0.00 | 0.00 | 82 | 1026.4 |
| 20260502053422 | 44 | 45 | 0.0 | 0.0 | 0.00 | 0.00 | 0.00 | 83 | 1026.3 |
| 20260502052924 | 44 | 45 | 0.0 | 0.0 | 0.00 | 0.00 | 0.00 | 83 | 1026.6 |
| 20260502051924 | 43 | 45 | 0.0 | 0.0 | 0.00 | 0.00 | 0.00 | 84 | 1026.4 |
| 20260502050922 | 42 | 45 | 0.0 | 0.0 | 0.00 | 0.00 | 0.00 | 84 | 1026.5 |
| 20260502050422 | 42 | 68 | 0.0 | 0.0 | 0.00 | 0.00 | 0.00 | 84 | 1026.4 |
| 20260502045924 | 41 | 68 | 0.0 | 0.0 | 0.00 | 0.00 | 0.00 | 84 | 1026.5 |
| 20260502044924 | 40 | 90 | 0.0 | 0.0 | 0.00 | 0.00 | 0.00 | 84 | 1026.4 |
| 20260502044424 | 39 | 90 | 0.0 | 0.0 | 0.00 | 0.00 | 0.00 | 84 | 1026.2 |
| 20260502043926 | 39 | 90 | 0.0 | 0.0 | 0.00 | 0.00 | 0.00 | 84 | 1026.3 |
| 20260502042924 | 38 | 90 | 0.0 | 0.0 | 0.00 | 0.00 | 0.00 | 83 | 1026.2 |
| 20260502042424 | 37 | 90 | 0.0 | 0.0 | 0.00 | 0.00 | 0.00 | 83 | 1026.3 |
| 20260502041923 | 37 | 90 | 0.0 | 0.0 | 0.00 | 0.00 | 0.00 | 83 | 1026.1 |
| 20260502041425 | 37 | 90 | 0.0 | 0.0 | 0.00 | 0.00 | 0.00 | 83 | 1026.2 |
| 20260502035923 | 36 | 90 | 0.0 | 0.0 | 0.00 | 0.00 | 0.00 | 83 | 1026.0 |
| 20260502035425 | 36 | 90 | 0.0 | 0.0 | 0.00 | 0.00 | 0.00 | 83 | 1026.1 |
| 20260502034925 | 36 | 90 | 0.0 | 0.0 | 0.00 | 0.00 | 0.00 | 83 | 1026.2 |
| 20260502034425 | 35 | 90 | 0.0 | 0.0 | 0.00 | 0.00 | 0.00 | 83 | 1026.1 |
| 20260502033925 | 35 | 90 | 0.0 | 0.0 | 0.00 | 0.00 | 0.00 | 83 | 1026.2 |
| 20260502033425 | 35 | 90 | 0.0 | 0.0 | 0.00 | 0.00 | 0.00 | 82 | 1026.0 |
| 20260502032925 | 35 | 90 | 0.0 | 0.0 | 0.00 | 0.00 | 0.00 | 82 | 1025.9 |
| 20260502032427 | 35 | 90 | 0.0 | 0.0 | 0.00 | 0.00 | 0.00 | 82 | 1025.9 |
| 20260502031925 | 35 | 90 | 0.0 | 0.0 | 0.00 | 0.00 | 0.00 | 82 | 1026.0 |
| 20260502030925 | 35 | 90 | 0.0 | 0.0 | 0.00 | 0.00 | 0.00 | 82 | 1025.9 |
| 20260502025425 | 35 | 90 | 0.0 | 0.0 | 0.00 | 0.00 | 0.00 | 82 | 1026.2 |
| 20260502024924 | 35 | 90 | 0.0 | 0.0 | 0.00 | 0.00 | 0.00 | 82 | 1026.2 |
| 20260502023924 | 35 | 90 | 0.0 | 0.0 | 0.00 | 0.00 | 0.00 | 82 | 1026.3 |
| 20260502022924 | 35 | 90 | 0.0 | 0.0 | 0.00 | 0.00 | 0.00 | 81 | 1026.3 |
| 20260502022426 | 36 | 90 | 0.0 | 0.0 | 0.00 | 0.00 | 0.00 | 81 | 1026.2 |
| 20260502021924 | 36 | 90 | 0.0 | 0.0 | 0.00 | 0.00 | 0.00 | 81 | 1026.2 |
| 20260502021424 | 36 | 90 | 0.0 | 0.0 | 0.00 | 0.00 | 0.00 | 81 | 1026.2 |
| 20260502020924 | 36 | 90 | 0.0 | 0.0 | 0.00 | 0.00 | 0.00 | 81 | 1026.2 |
| 20260502020426 | 36 | 90 | 0.0 | 0.0 | 0.00 | 0.00 | 0.00 | 81 | 1026.3 |
| 20260502015924 | 36 | 90 | 0.0 | 0.0 | 0.00 | 0.00 | 0.00 | 81 | 1026.3 |
| 20260502015426 | 36 | 90 | 0.0 | 0.0 | 0.00 | 0.00 | 0.00 | 80 | 1026.3 |
| 20260502014426 | 36 | 90 | 0.0 | 0.0 | 0.00 | 0.00 | 0.00 | 80 | 1026.3 |
| 20260502013926 | 36 | 90 | 0.0 | 0.0 | 0.00 | 0.00 | 0.00 | 80 | 1026.3 |
| 20260502013424 | 36 | 90 | 0.0 | 0.0 | 0.00 | 0.00 | 0.00 | 79 | 1026.6 |
| 20260502012925 | 36 | 90 | 0.0 | 0.0 | 0.00 | 0.00 | 0.00 | 79 | 1026.4 |
| 20260502012425 | 36 | 90 | 0.0 | 0.0 | 0.00 | 0.00 | 0.00 | 79 | 1026.5 |
| 20260502011927 | 36 | 90 | 0.0 | 0.0 | 0.00 | 0.00 | 0.00 | 79 | 1026.3 |
| 20260502011425 | 37 | 90 | 0.0 | 0.0 | 0.00 | 0.00 | 0.00 | 79 | 1026.5 |
| 20260502010929 | 37 | 90 | 0.0 | 0.0 | 0.00 | 0.00 | 0.00 | 79 | 1026.5 |
| 20260502010427 | 37 | 90 | 0.0 | 0.0 | 0.00 | 0.00 | 0.00 | 79 | 1026.3 |
| 20260502005927 | 37 | 90 | 0.0 | 0.0 | 0.00 | 0.00 | 0.00 | 79 | 1026.5 |
| 20260502005427 | 37 | 90 | 0.0 | 0.0 | 0.00 | 0.00 | 0.00 | 79 | 1026.5 |
| 20260502003925 | 37 | 90 | 0.0 | 0.0 | 0.00 | 0.00 | 0.00 | 78 | 1026.6 |
| 20260502002925 | 37 | 90 | 0.0 | 0.0 | 0.00 | 0.00 | 0.00 | 78 | 1026.7 |
| 20260502002425 | 37 | 90 | 0.0 | 0.0 | 0.00 | 0.00 | 0.00 | 78 | 1026.6 |
| 20260502001925 | 38 | 90 | 0.0 | 0.0 | 0.00 | 0.00 | 0.00 | 78 | 1026.7 |
| 20260502001425 | 38 | 90 | 0.0 | 0.0 | 0.00 | 0.00 | 0.00 | 78 | 1026.7 |
| 20260502000928 | 38 | 90 | 0.0 | 0.0 | 0.00 | 0.00 | 0.00 | 78 | 1026.7 |
| 20260501235926 | 38 | 90 | 0.0 | 0.0 | 0.00 | 0.00 | 0.00 | 77 | 1026.7 |
| 20260501235426 | 38 | 90 | 0.0 | 0.0 | 0.00 | 0.00 | 0.00 | 77 | 1026.7 |
| 20260501234426 | 38 | 90 | 0.0 | 0.0 | 0.00 | 0.00 | 0.00 | 77 | 1026.8 |
| 20260501233426 | 38 | 90 | 0.0 | 0.0 | 0.00 | 0.00 | 0.00 | 77 | 1027.0 |
| 20260501232926 | 39 | 90 | 0.0 | 0.0 | 0.00 | 0.00 | 0.00 | 76 | 1027.0 |
| 20260501232426 | 39 | 90 | 0.0 | 0.0 | 0.00 | 0.00 | 0.00 | 76 | 1027.2 |
| 20260501231926 | 39 | 90 | 0.0 | 0.0 | 0.00 | 0.00 | 0.00 | 76 | 1027.0 |
| 20260501231426 | 39 | 90 | 0.0 | 0.0 | 0.00 | 0.00 | 0.00 | 77 | 1027.2 |
| 20260501230926 | 40 | 90 | 0.0 | 0.0 | 0.00 | 0.00 | 0.00 | 77 | 1027.1 |
| 20260501230426 | 40 | 90 | 0.0 | 0.0 | 0.00 | 0.00 | 0.00 | 76 | 1027.0 |
| 20260501225428 | 40 | 90 | 0.0 | 0.0 | 0.00 | 0.00 | 0.00 | 76 | 1027.1 |
| 20260501224926 | 40 | 90 | 0.0 | 0.0 | 0.00 | 0.00 | 0.00 | 76 | 1027.1 |
| 20260501223927 | 40 | 90 | 0.0 | 0.0 | 0.00 | 0.00 | 0.00 | 76 | 1027.1 |
| 20260501223429 | 40 | 90 | 0.0 | 0.0 | 0.00 | 0.00 | 0.00 | 75 | 1027.2 |
| 20260501222927 | 40 | 90 | 0.0 | 0.0 | 0.00 | 0.00 | 0.00 | 74 | 1027.2 |
| 20260501222429 | 41 | 90 | 0.0 | 0.0 | 0.00 | 0.00 | 0.00 | 74 | 1027.3 |
| 20260501220929 | 41 | 90 | 0.0 | 0.0 | 0.00 | 0.00 | 0.00 | 73 | 1027.3 |
| 20260501220429 | 41 | 90 | 0.0 | 0.0 | 0.00 | 0.00 | 0.00 | 73 | 1027.2 |
| 20260501215927 | 41 | 90 | 0.0 | 0.0 | 0.00 | 0.00 | 0.00 | 72 | 1027.2 |
| 20260501215429 | 41 | 90 | 0.0 | 0.0 | 0.00 | 0.00 | 0.00 | 72 | 1027.4 |
| 20260501214931 | 41 | 90 | 0.0 | 0.0 | 0.00 | 0.00 | 0.00 | 72 | 1027.3 |
| 20260501214427 | 42 | 90 | 0.0 | 0.0 | 0.00 | 0.00 | 0.00 | 71 | 1027.4 |
| 20260501213929 | 42 | 90 | 0.0 | 0.0 | 0.00 | 0.00 | 0.00 | 71 | 1027.2 |
| 20260501213427 | 42 | 90 | 0.0 | 0.0 | 0.00 | 0.00 | 0.00 | 71 | 1027.2 |
| 20260501211430 | 43 | 90 | 0.0 | 0.0 | 0.00 | 0.00 | 0.00 | 69 | 1027.2 |
| 20260501210930 | 43 | 90 | 0.0 | 0.0 | 0.00 | 0.00 | 0.00 | 69 | 1027.4 |
| 20260501210428 | 43 | 90 | 0.0 | 0.0 | 0.00 | 0.00 | 0.00 | 69 | 1027.2 |
| 20260501205928 | 44 | 90 | 0.0 | 0.0 | 0.00 | 0.00 | 0.00 | 69 | 1027.3 |
| 20260501204928 | 44 | 90 | 0.0 | 0.0 | 0.00 | 0.00 | 0.00 | 69 | 1027.5 |
| 20260501204430 | 44 | 90 | 0.0 | 0.0 | 0.00 | 0.00 | 0.00 | 68 | 1027.3 |
| 20260501203928 | 44 | 90 | 0.0 | 0.0 | 0.00 | 0.00 | 0.00 | 67 | 1027.3 |
| 20260501203428 | 44 | 90 | 0.0 | 0.0 | 0.00 | 0.00 | 0.00 | 67 | 1027.3 |
| 20260501202928 | 45 | 90 | 0.0 | 0.0 | 0.00 | 0.00 | 0.00 | 66 | 1027.3 |
| 20260501202428 | 45 | 90 | 0.0 | 0.0 | 0.00 | 0.00 | 0.00 | 66 | 1027.2 |
| 20260501201934 | 45 | 90 | 0.0 | 0.0 | 0.00 | 0.00 | 0.00 | 66 | 1027.3 |
| 20260501201428 | 46 | 90 | 0.0 | 0.0 | 0.00 | 0.00 | 0.00 | 65 | 1027.1 |
| 20260501200428 | 46 | 90 | 0.0 | 0.0 | 0.00 | 0.00 | 0.00 | 65 | 1027.1 |
| 20260501195930 | 46 | 90 | 0.0 | 0.0 | 0.00 | 0.00 | 0.00 | 63 | 1027.1 |
| 20260501195428 | 47 | 90 | 0.0 | 0.0 | 0.00 | 0.00 | 0.00 | 63 | 1027.1 |
| 20260501194930 | 47 | 90 | 0.0 | 0.0 | 0.00 | 0.00 | 0.00 | 62 | 1026.9 |
| 20260501193929 | 47 | 90 | 0.0 | 0.0 | 0.00 | 0.00 | 0.00 | 62 | 1026.9 |
| 20260501193429 | 48 | 90 | 0.0 | 0.0 | 0.00 | 0.00 | 0.00 | 61 | 1026.9 |
| 20260501192931 | 48 | 90 | 0.0 | 0.0 | 0.00 | 0.00 | 0.00 | 60 | 1027.1 |
| 20260501192430 | 49 | 90 | 0.0 | 0.0 | 0.00 | 0.00 | 0.00 | 60 | 1026.9 |
| 20260501191929 | 49 | 90 | 0.0 | 0.0 | 0.00 | 0.00 | 0.00 | 60 | 1027.0 |
| 20260501191431 | 49 | 90 | 0.0 | 0.0 | 0.00 | 0.00 | 0.00 | 60 | 1027.1 |
| 20260501190931 | 50 | 90 | 0.0 | 0.0 | 0.00 | 0.00 | 0.00 | 60 | 1027.0 |
| 20260501190431 | 50 | 90 | 0.0 | 0.0 | 0.00 | 0.00 | 0.00 | 59 | 1026.9 |
| 20260501185431 | 51 | 90 | 0.0 | 0.0 | 0.00 | 0.00 | 0.00 | 57 | 1027.0 |
| 20260501184931 | 51 | 90 | 0.0 | 0.0 | 0.00 | 0.00 | 0.00 | 56 | 1026.8 |
| 20260501184431 | 52 | 90 | 0.0 | 0.0 | 0.00 | 0.00 | 0.00 | 55 | 1026.8 |
| 20260501183931 | 53 | 90 | 0.0 | 0.0 | 0.00 | 0.00 | 0.00 | 55 | 1026.9 |
| 20260501183431 | 53 | 90 | 0.0 | 0.0 | 0.00 | 0.00 | 0.00 | 54 | 1026.8 |
| 20260501182932 | 54 | 90 | 0.0 | 0.0 | 0.00 | 0.00 | 0.00 | 53 | 1026.7 |
| 20260501182433 | 55 | 90 | 0.0 | 0.0 | 0.00 | 0.00 | 0.00 | 52 | 1026.6 |
| 20260501181929 | 55 | 90 | 0.0 | 0.0 | 0.00 | 0.00 | 0.00 | 51 | 1026.7 |
| 20260501181432 | 56 | 90 | 0.0 | 0.0 | 0.00 | 0.00 | 0.00 | 50 | 1026.6 |
| 20260501180931 | 56 | 90 | 0.0 | 0.0 | 0.00 | 0.00 | 0.00 | 49 | 1026.6 |
| 20260501175932 | 58 | 90 | 0.0 | 0.0 | 0.00 | 0.00 | 0.00 | 47 | 1026.4 |
| 20260501174932 | 59 | 135 | 0.0 | 0.0 | 0.00 | 0.00 | 0.00 | 45 | 1026.3 |
| 20260501174433 | 60 | 135 | 0.0 | 0.0 | 0.00 | 0.00 | 0.00 | 44 | 1026.3 |
| 20260501173432 | 60 | 135 | 0.0 | 0.0 | 0.00 | 0.00 | 0.00 | 43 | 1026.2 |
| 20260501172932 | 61 | 135 | 0.0 | 0.0 | 0.00 | 0.00 | 0.00 | 43 | 1026.0 |
| 20260501172432 | 62 | 135 | 0.0 | 0.0 | 0.00 | 0.00 | 0.00 | 43 | 1026.1 |
| 20260501171432 | 62 | 180 | 0.0 | 0.0 | 0.00 | 0.00 | 0.00 | 42 | 1025.9 |
| 20260501170932 | 62 | 158 | 0.0 | 0.0 | 0.00 | 0.00 | 0.00 | 41 | 1025.9 |
| 20260501165933 | 63 | 135 | 0.0 | 1.0 | 0.00 | 0.00 | 0.00 | 41 | 1026.0 |
| 20260501165432 | 63 | 135 | 0.0 | 1.0 | 0.00 | 0.00 | 0.00 | 41 | 1026.0 |
| 20260501164933 | 63 | 135 | 0.0 | 0.0 | 0.00 | 0.00 | 0.00 | 40 | 1026.0 |
| 20260501164434 | 64 | 45 | 0.0 | 0.0 | 0.00 | 0.00 | 0.00 | 40 | 1026.0 |
| 20260501163434 | 64 | 135 | 0.0 | 1.0 | 0.00 | 0.00 | 0.00 | 40 | 1025.9 |
| 20260501162933 | 64 | 135 | 0.0 | 1.0 | 0.00 | 0.00 | 0.00 | 40 | 1025.9 |
| 20260501162432 | 64 | 135 | 0.0 | 0.0 | 0.00 | 0.00 | 0.00 | 39 | 1025.8 |
| 20260501161933 | 64 | 135 | 0.0 | 0.0 | 0.00 | 0.00 | 0.00 | 39 | 1025.7 |
| 20260501161434 | 65 | 0 | 0.0 | 0.0 | 0.00 | 0.00 | 0.00 | 39 | 1025.8 |
| 20260501160433 | 65 | 158 | 0.0 | 0.0 | 0.00 | 0.00 | 0.00 | 38 | 1025.9 |
| 20260501155934 | 65 | 135 | 0.0 | 0.0 | 0.00 | 0.00 | 0.00 | 38 | 1025.9 |
| 20260501155436 | 65 | 135 | 0.0 | 0.0 | 0.00 | 0.00 | 0.00 | 38 | 1025.9 |
| 20260501154933 | 65 | 135 | 0.0 | 0.0 | 0.00 | 0.00 | 0.00 | 38 | 1025.8 |